Change the Weather History Date:

Monday, September 16, 2013

  Actual Average (KMTC) Record (KMTC)
Temperature  
Mean Temperature 49 °F -  
Max Temperature 57 °F 69 °F 85 °F (1991)
Min Temperature 41 °F 52 °F 37 °F (1966)
Degree Days  
Heating Degree Days 16    
Moisture  
Dew Point 48 °F    
Average Humidity 86    
Maximum Humidity 100    
Minimum Humidity 63    
Precipitation  
Precipitation 0.00 in - - ()
Sea Level Pressure  
Sea Level Pressure 30.27 in    
Wind  
Wind Speed 5 mph (NNW)    
Max Wind Speed 15 mph    
Max Gust Speed 24 mph    
Visibility 10 miles    
Events Rain    
Averages and records for this station are not official NWS values.
T = Trace of Precipitation, MM = Missing Value Source: NWS Daily Summary

Daily Weather History Graph

Daily Weather History Graph

Search for Another Location

Airport or City:

Trip Planner

Search our weather history database for the weather conditions in past years. The results will help you decide how hot, cold, wet, or windy it might be!

Date:

Astronomy

Sep. 16, 2013 Rise Set
Actual Time 7:11 AM EDT 7:37 PM EDT
Civil Twilight 6:42 AM EDT 8:06 PM EDT
Nautical Twilight 6:09 AM EDT 8:39 PM EDT
Astronomical Twilight 5:34 AM EDT 9:13 PM EDT
Moon 5:48 PM EDT (9/16) 3:52 AM EDT (9/16)
Length of Visible Light 13h 23m
Length of Day
12h 26m
Waxing Gibbous, 90% of the Moon is Illuminated
Sep 16
Waxing Gibbous
Sep 19
Full
Sep 26
Last Quarter
Oct 4
New
Oct 11
First Quarter

Hourly Weather History & Observations

Time (EDT) Temp. Windchill Dew Point Humidity Pressure Visibility Wind Dir Wind Speed Gust Speed Precip Events Conditions
12:16 AM 51.8 °F - 51.8 °F 100% 30.12 in 10.0 mi Calm Calm - N/A   Overcast
12:36 AM 51.8 °F - 51.8 °F 100% 30.12 in 10.0 mi Calm Calm - N/A   Overcast
12:56 AM 51.8 °F - 51.8 °F 100% 30.13 in 10.0 mi Calm Calm - N/A   Overcast
1:16 AM 51.8 °F - 51.8 °F 100% 30.13 in 10.0 mi Calm Calm - N/A   Mostly Cloudy
1:36 AM 50.0 °F - 50.0 °F 100% 30.13 in 10.0 mi Calm Calm - N/A   Scattered Clouds
1:56 AM 50.0 °F - 50.0 °F 100% 30.13 in 7.0 mi Calm Calm - N/A   Clear
2:16 AM 50.0 °F - 50.0 °F 100% 30.13 in 4.0 mi Calm Calm - N/A   Clear
2:36 AM 50.0 °F - 50.0 °F 100% 30.13 in 10.0 mi Calm Calm - N/A   Clear
2:56 AM 50.0 °F - 50.0 °F 100% 30.13 in 10.0 mi Calm Calm - N/A   Mostly Cloudy
3:16 AM 51.8 °F - 51.8 °F 100% 30.13 in 10.0 mi WNW 3.5 mph - N/A   Overcast
3:36 AM 51.8 °F - 51.8 °F 100% 30.13 in 10.0 mi WNW 4.6 mph - N/A   Overcast
3:56 AM 51.8 °F - 51.8 °F 100% 30.14 in 10.0 mi WNW 4.6 mph - N/A   Overcast
4:16 AM 53.6 °F - 53.6 °F 100% 30.14 in 7.0 mi WNW 3.5 mph - N/A   Overcast
4:36 AM 53.6 °F - 53.6 °F 100% 30.14 in 7.0 mi WNW 5.8 mph - N/A   Overcast
4:56 AM 53.6 °F - 53.6 °F 100% 30.15 in 7.0 mi NW 5.8 mph - N/A   Overcast
5:16 AM 53.6 °F - 53.6 °F 100% 30.15 in 10.0 mi NW 5.8 mph - N/A   Overcast
5:36 AM 53.6 °F - 53.6 °F 100% 30.16 in 10.0 mi NW 5.8 mph - N/A   Overcast
5:56 AM 55.4 °F - 55.4 °F 100% 30.16 in 10.0 mi WNW 5.8 mph - N/A   Overcast
6:16 AM 55.4 °F - 55.4 °F 100% 30.17 in 10.0 mi WNW 6.9 mph - N/A   Overcast
6:36 AM 55.4 °F - 55.4 °F 100% 30.18 in 10.0 mi NW 4.6 mph - N/A   Overcast
6:56 AM 55.4 °F - 55.4 °F 100% 30.19 in 7.0 mi NNW 6.9 mph - N/A Rain Rain
7:16 AM 55.4 °F - 55.4 °F 100% 30.21 in 10.0 mi North 6.9 mph - N/A Rain Rain
7:36 AM 55.4 °F - 55.4 °F 100% 30.22 in 10.0 mi North 6.9 mph - N/A Rain Light Rain
7:56 AM 55.4 °F - 55.4 °F 100% 30.22 in 10.0 mi North 9.2 mph - N/A Rain Light Rain
8:16 AM 53.6 °F - 53.6 °F 100% 30.23 in 10.0 mi NNW 5.8 mph - N/A Rain Light Rain
8:36 AM 53.6 °F - 53.6 °F 100% 30.24 in 10.0 mi North 8.1 mph - N/A Rain Light Rain
8:56 AM 53.6 °F - 53.6 °F 100% 30.24 in 10.0 mi North 6.9 mph - N/A   Overcast
9:16 AM 55.4 °F - 53.6 °F 94% 30.26 in 10.0 mi North 6.9 mph - N/A   Overcast
9:36 AM 55.4 °F - 53.6 °F 94% 30.27 in 10.0 mi NNW 9.2 mph - N/A   Overcast
9:56 AM 55.4 °F - 53.6 °F 94% 30.27 in 10.0 mi North 9.2 mph - N/A   Overcast
10:16 AM 55.4 °F - 53.6 °F 94% 30.28 in 10.0 mi North 11.5 mph - N/A   Mostly Cloudy
10:36 AM 57.2 °F - 51.8 °F 82% 30.29 in 10.0 mi North 12.7 mph 17.3 mph N/A   Scattered Clouds
10:56 AM 55.4 °F - 50.0 °F 82% 30.29 in 10.0 mi North 15.0 mph 19.6 mph N/A   Mostly Cloudy
11:16 AM 57.2 °F - 50.0 °F 77% 30.30 in 10.0 mi North 11.5 mph 20.7 mph N/A   Overcast
11:36 AM 57.2 °F - 48.2 °F 72% 30.31 in 10.0 mi North 12.7 mph 19.6 mph N/A   Overcast
11:56 AM 57.2 °F - 48.2 °F 72% 30.31 in 10.0 mi North 12.7 mph 21.9 mph N/A   Overcast
12:16 PM 57.2 °F - 48.2 °F 72% 30.32 in 10.0 mi NNW 13.8 mph 20.7 mph N/A   Overcast
12:36 PM 57.2 °F - 48.2 °F 72% 30.32 in 10.0 mi North 12.7 mph 21.9 mph N/A   Overcast
12:56 PM 57.2 °F - 46.4 °F 67% 30.33 in 10.0 mi North 13.8 mph 21.9 mph N/A   Overcast
1:16 PM 57.2 °F - 46.4 °F 67% 30.33 in 10.0 mi North 10.4 mph 19.6 mph N/A   Overcast
1:36 PM 57.2 °F - 46.4 °F 67% 30.33 in 10.0 mi North 13.8 mph 21.9 mph N/A   Overcast
1:56 PM 57.2 °F - 44.6 °F 63% 30.34 in 10.0 mi North 10.4 mph 24.2 mph N/A   Overcast
2:16 PM 55.4 °F - 44.6 °F 67% 30.35 in 10.0 mi North 15.0 mph 20.7 mph N/A   Overcast
2:36 PM 55.4 °F - 46.4 °F 72% 30.35 in 10.0 mi NNE 12.7 mph 19.6 mph N/A   Overcast
2:56 PM 57.2 °F - 46.4 °F 67% 30.35 in 10.0 mi North 13.8 mph 20.7 mph N/A   Overcast
3:16 PM 55.4 °F - 44.6 °F 67% 30.35 in 10.0 mi NNE 12.7 mph 19.6 mph N/A   Mostly Cloudy
3:36 PM 57.2 °F - 44.6 °F 63% 30.34 in 10.0 mi North 15.0 mph 21.9 mph N/A   Mostly Cloudy
3:56 PM 57.2 °F - 44.6 °F 63% 30.34 in 10.0 mi North 11.5 mph 21.9 mph N/A   Scattered Clouds
4:16 PM 55.4 °F - 46.4 °F 72% 30.34 in 10.0 mi North 12.7 mph 19.6 mph N/A   Mostly Cloudy
4:36 PM 55.4 °F - 44.6 °F 67% 30.34 in 10.0 mi NNE 10.4 mph 19.6 mph N/A   Overcast
4:56 PM 57.2 °F - 44.6 °F 63% 30.35 in 10.0 mi North 12.7 mph 19.6 mph N/A   Mostly Cloudy
5:16 PM 55.4 °F - 44.6 °F 67% 30.35 in 10.0 mi North 11.5 mph - N/A   Scattered Clouds
5:36 PM 55.4 °F - 44.6 °F 67% 30.35 in 10.0 mi NNE 15.0 mph 21.9 mph N/A   Mostly Cloudy
5:56 PM 55.4 °F - 46.4 °F 72% 30.35 in 10.0 mi North 9.2 mph - N/A   Overcast
6:16 PM 53.6 °F - 44.6 °F 72% 30.35 in 10.0 mi NNE 11.5 mph 17.3 mph N/A   Mostly Cloudy
6:36 PM 53.6 °F - 44.6 °F 72% 30.35 in 10.0 mi North 5.8 mph - N/A   Scattered Clouds
6:56 PM 53.6 °F - 44.6 °F 72% 30.36 in 10.0 mi North 6.9 mph - N/A   Overcast
7:16 PM 51.8 °F - 44.6 °F 76% 30.36 in 10.0 mi North 10.4 mph - N/A   Mostly Cloudy
7:36 PM 51.8 °F - 44.6 °F 76% 30.36 in 10.0 mi North 4.6 mph - N/A   Mostly Cloudy
7:56 PM 50.0 °F - 42.8 °F 76% 30.36 in 10.0 mi NNW 5.8 mph - N/A   Overcast
8:16 PM 50.0 °F - 42.8 °F 76% 30.36 in 10.0 mi NNW 4.6 mph - N/A   Mostly Cloudy
8:36 PM 48.2 °F - 42.8 °F 82% 30.37 in 10.0 mi NNW 5.8 mph - N/A   Scattered Clouds
8:56 PM 48.2 °F - 42.8 °F 82% 30.37 in 10.0 mi NNW 4.6 mph - N/A   Scattered Clouds
9:16 PM 46.4 °F 43.5 °F 42.8 °F 87% 30.38 in 10.0 mi NNW 5.8 mph - N/A   Scattered Clouds
9:36 PM 46.4 °F 44.3 °F 42.8 °F 87% 30.38 in 10.0 mi NNW 4.6 mph - N/A   Scattered Clouds
9:56 PM 44.6 °F 40.2 °F 41.0 °F 87% 30.38 in 10.0 mi NW 8.1 mph - N/A   Scattered Clouds
10:16 PM 44.6 °F 40.7 °F 42.8 °F 93% 30.38 in 10.0 mi NW 6.9 mph - N/A   Clear
10:36 PM 44.6 °F 40.7 °F 41.0 °F 87% 30.38 in 10.0 mi WNW 6.9 mph - N/A   Clear
10:56 PM 42.8 °F 38.6 °F 41.0 °F 93% 30.39 in 10.0 mi NW 6.9 mph - N/A   Clear
11:16 PM 42.8 °F 39.3 °F 41.0 °F 93% 30.38 in 10.0 mi NW 5.8 mph - N/A   Clear
11:36 PM 41.0 °F 37.1 °F 41.0 °F 100% 30.39 in 10.0 mi NW 5.8 mph - N/A   Clear
11:56 PM 42.8 °F - 41.0 °F 93% 30.39 in 10.0 mi Calm Calm - N/A   Clear